Location: Austin
(30.3000°N, 97.7500°W)
Time: 01:19:20
(UTC-05:00)

OAO 2 Rocket - Pass Details

Date: 15 May 2024
Orbit: 672 x 741 km, 35.0° (Epoch: 29 May)

Event Time Altitude Azimuth Distance (km) Brightness Sun altitude
Rises 20:53:14 0° 248° (WSW) 3,157 7.3 -7.6°
Reaches altitude 10° 20:55:41 10° 248° (WSW) 2,232 6.5 -8.1°
Maximum altitude 21:00:57 87° 160° (SSE) 733 3.4 -9.1°
Drops below altitude 10° 21:06:10 10° 71° (ENE) 2,204 5.5 -10.1°
Enters shadow 21:08:07 - 71° (ENE) 2,944 6.1 -10.4°
